{"data":{"norad_id":50198,"epoch":"2026-09-19T21:09:34.250688Z","epoch_age_seconds":98655,"freshness":"FRESH","line1":"1 50198U 21125AU  26262.88164642  .00018265  00000+0  90535-3 0  9997","line2":"2 50198  53.1574  83.0919 0002061 127.2547 232.8636 15.17812612266106","mean_motion":15.17812612,"eccentricity":0.0002061,"inclination_deg":53.1574,"raan_deg":83.0919,"arg_perigee_deg":127.2547,"mean_anomaly_deg":232.8636,"bstar":0.00090535,"rev_number":26610,"period_min":94.873371628039,"perigee_km":511.03274869604,"apogee_km":513.87304985252,"semimajor_km":6890.5898992743,"source":"CELESTRAK","updated_at":"2026-09-20T09:00:39.419769Z"}}